User: anonymous   Login
Location: Columbia
(38.9520°N, 92.3340°W)
Time: 07:01:06
(UTC-06:00)
Language:

Cosmos 1603 - Orbit

View from above orbital plane
View from above orbital plane
View from above satellite
View from above satellite

Ground track
Ground track

The orbit data is extracted from the following two-line orbital elements,

1 15333U 84106A   16041.14718650 -.00000292  00000-0 -12837-3 0  9997
2 15333  71.0262  44.7574 0022013 241.5187 118.3718 14.14025989618560
Epoch (UTC): 10 February 2016 03:31:56
Eccentricity: 0.0022013
inclination: 71.0262°
perigee height: 830 km
apogee height: 861 km
right ascension of ascending node: 44.7574°
argument of perigee: 241.5187°
revolutions per day: 14.14025989
mean anomaly at epoch: 118.3718°
orbit number at epoch: 61856

The dashed part of the orbit path shows where the satellite is in the earth's shadow,  

DLR